IRIDIUM 65 [-]

Last updated on Thu Jul 19 2018 00:20:29 GMT+0000 (Coordinated Universal Time)

1 25288U 98021D 18199.85130241 .14987453 -17330-5 22782-3 0 9992 2 25288 86.3753 56.1745 0054618 105.1049 255.6311 16.41619131 62128

Satellite not in orbit